User: anonymous   Login
Location: Unspecified
(0.0000°N, 0.0000°E)
Time: 08:26:38
(UTC+00:00)
Language:

CICERO 10 - Orbit

View from above orbital plane
View from above orbital plane
View from above satellite
View from above satellite

Ground track
Ground track

The orbit data is extracted from the following two-line orbital elements,

1 43690U 18088A   21024.76060243  .00001285  00000-0  56420-4 0  9991
2 43690  85.0386 292.4485 0013198 210.8328 149.2139 15.20788215122388
Epoch (UTC): 24 January 2021 18:15:16
Eccentricity: 0.0013198
inclination: 85.0386°
perigee height: 494 km
apogee height: 512 km
right ascension of ascending node: 292.4485°
argument of perigee: 210.8328°
revolutions per day: 15.20788215
mean anomaly at epoch: 149.2139°
orbit number at epoch: 12238

The dashed part of the orbit path shows where the satellite is in the earth's shadow,  

DLR